Location: Cactus School
(34.5700°N, 118.0931°W)
Time: 02:59:25
(UTC-08:00)

BlueWalker 3 - Visible Passes

Search period start: 28 February 2024 00:00
Search period end: 09 March 2024 00:00
Orbit: 485 x 500 km, 53.2° (Epoch: 27 February)

Date Brightness Start Highest point End Pass type
(mag) Time Alt. Az. Time Alt. Az. Time Alt. Az.
29 Feb 4.7 19:56:54 10° NNW 19:57:07 11° NNW 19:57:07 11° NNW visible
01 Mar 4.1 19:33:03 10° NNW 19:34:23 16° N 19:34:23 16° N visible
02 Mar 3.7 19:09:12 10° NNW 19:11:43 18° NNE 19:11:43 18° NNE visible
03 Mar 3.6 18:45:19 10° NNW 18:47:58 18° NNE 18:49:07 16° NE visible
03 Mar 4.8 20:22:47 10° NW 20:23:37 16° WNW 20:23:37 16° WNW visible
04 Mar 3.7 18:21:26 10° NNW 18:24:01 17° NNE 18:26:36 10° ENE visible
04 Mar 3.5 19:58:51 10° NW 20:01:08 33° WNW 20:01:08 33° WNW visible
05 Mar 2.1 19:34:54 10° NW 19:38:37 61° SW 19:38:45 60° SW visible
06 Mar 2.2 19:10:56 10° NW 19:14:40 64° SW 19:16:31 27° SSE visible
07 Mar 2.1 18:46:58 10° NW 18:50:42 67° SW 18:54:25 10° SE visible
08 Mar 2.1 18:22:58 10° NW 18:26:43 71° SW 18:30:27 10° SE visible
